METEOR 3-1 DEB, 29136

Orbit data source: Space-Track

METEOR 3-1 DEB, 29136 is space debris in LEO originally from a launch on Thu, 24 Oct 1985 UTC launched from the Plesetsk Missile And Space Complex (PKMTR). Debris objects in space refer to the collection of defunct objects orbiting the Earth. Examples of debris include non-operational satellites, rocket bodies, and fragments generated from explosions, collisions, or faulty payload assembly.

Loading next visibility...
Identifier
29136, 1985-100C
Orbit
LEO
Country
Flag of CISCIS
Related business
Manufacturer
VNIIEM
Mission
Spacecraft
Bus & Motor
Unknown
Mass
Unknown
Launch date (UTC)
1985-10-24 (41 years ago)
Launch vehicle
Unknown
Launch site
Plesetsk Missile And Space Complex (PKMTR)
Object type
Payload
Rocket body
Debris
Shape & HBR
Unknown shape, 0.1 m
Radar Cross Section
Small (<0.1 m²)

Expand to show TLE details & history
Last TLE update: 4 days ago

TLE from 4 days ago
0 METEOR 3-1 DEB
1 29136U 85100C   26169.79478221  .00000649  00000-0  14747-2 0  9993
2 29136  82.5476 356.7309 0039887 214.6483 166.8098 13.24453707125485
Epoch: 2026-06-18T19:04Z
TLE epoch observation values (Epoch: 2026-06-18T19:04:29.182Z)
Latitude
21.38024°
Longitude
166.49691°
Altitude
1,199.617 km
Speed
7.242 km/s
True Right ascension
23h 58m 36s
True Declination
21° 16' 14"
Sunlit
Object was in daylight at epoch
Visualization orbit readout
Latitude
Unknown
Longitude
Unknown
Altitude
Unknown
Speed
Unknown
Apparent Right ascension
Unknown
Apparent Declination
Unknown
Sunlit
N/A
Visualization observer readout
Local Sidereal Time
23:08:03
Azimuth
Unknown
Elevation
Unknown
Doppler factor
Unknown
Orbital elements
Apogee altitude
1,195.078 km
Perigee altitude
1,134.903 km
Semi-major axis
7,543.128 km
Eccentricity
0.00399
Inclination
82.5476°
RAAN
356.7309°
Arg. of periapsis
214.6483°
True anomaly
166.91359°
Mean anomaly
166.8098°
Eccentric anomaly
166.86175°
Mean motion
3.31296 °/min
Orbital period
108.66 mins
BSTAR
0.0014747
Loading maneuver chart data...
Computing Atmospheric mass density...
Loading historical data...
Loading historical data...
Loading historical data...
Loading historical data...
Loading historical data...
Loading historical data...
Loading historical data...
Other satellites on launch #100 in the year 1985 (1985-10-24 UTC)

Documentation

Showing up to 5 results
|